Location: Unspecified
(0.0000°N, 0.0000°E)
Time: 12:53:58
(UTC+00:00)

Courier 1B Rocket - Visible Passes

Search period start: 30 October 2014 00:00
Search period end: 09 November 2014 00:00
Orbit: 921 x 1202 km, 28.3° (Epoch: 29 October)

Date Brightness Start Highest point End Pass type
(mag) Time Alt. Az. Time Alt. Az. Time Alt. Az.
30 Oct 7.4 05:02:02 10° N 05:05:38 14° NNE 05:09:13 10° NE visible
30 Oct 6.2 18:23:49 10° SSW 18:29:02 27° SSE 18:33:41 13° E visible
30 Oct 6.0 20:16:07 10° WSW 20:20:04 41° WSW 20:20:04 41° WSW visible
31 Oct 5.0 19:15:19 10° SW 19:21:34 67° SSE 19:23:05 51° E visible
31 Oct 7.7 21:09:21 10° W 21:09:28 11° W 21:09:28 11° W visible
01 Nov 7.2 04:52:05 10° NNW 04:57:27 20° NNE 05:02:46 10° ENE visible
01 Nov 5.6 18:14:45 10° SW 18:20:37 42° SSE 18:26:06 12° E visible
01 Nov 5.9 20:07:56 10° WSW 20:12:30 42° WNW 20:12:30 42° WNW visible
02 Nov 7.4 03:52:39 11° N 03:55:49 14° NNE 03:59:34 10° NE visible
02 Nov 4.9 19:06:49 10° WSW 19:13:05 78° NNW 19:15:32 40° NE visible
03 Nov 6.8 04:42:35 10° NNW 04:49:04 29° NNE 04:55:33 10° E visible
03 Nov 5.0 18:05:58 10° SW 18:12:10 68° SSE 18:18:29 10° ENE visible
03 Nov 6.2 20:00:08 10° W 20:04:58 31° NW 20:04:58 31° NW visible
04 Nov 7.0 03:44:59 17° N 03:47:35 20° NNE 03:53:00 10° ENE visible
04 Nov 5.5 18:58:39 10° WSW 19:04:38 48° NNW 19:08:00 25° NNE visible
05 Nov 7.6 02:48:00 13° NE 02:48:00 13° NE 02:49:42 10° NE visible
05 Nov 6.3 04:34:23 14° NW 04:40:33 42° NNE 04:47:49 10° E visible
05 Nov 5.1 17:57:28 10° WSW 18:03:42 75° NNW 18:09:59 10° NE visible
05 Nov 6.6 19:52:52 10° WNW 19:57:21 20° NNW 19:57:24 20° NNW visible
06 Nov 6.6 03:37:24 26° N 03:39:11 29° NNE 03:45:44 10° E visible
06 Nov 6.2 18:50:53 10° W 18:56:14 30° NNW 19:00:25 15° NNE visible
07 Nov 7.4 02:40:25 17° NE 02:40:25 17° NE 02:43:06 10° ENE visible
07 Nov 5.7 04:26:49 22° NW 04:31:56 62° NNE 04:39:40 10° ESE visible
07 Nov 7.0 19:46:30 10° NW 19:49:10 13° NNW 19:49:47 13° NNW visible
08 Nov 6.0 03:29:50 41° NNE 03:30:39 42° NNE 03:37:56 10° E visible
08 Nov 5.7 05:16:55 10° WNW 05:24:34 63° SSW 05:32:19 10° SE visible
08 Nov 6.8 18:43:39 10° WNW 18:47:56 19° NNW 18:52:15 10° NNE visible
